PulseSat

PulseSat

GSAT0213 (GALILEO 17)

Last updated on April 21, 2019, 3:01 a.m. UTC

1 41861U 16069C   19109.38797999  .00000025  00000-0  00000-0 0  9990
2 41861  54.5967 173.6563 0004648 267.6560  92.3765  1.70473845 15066
UTC
Height (km)
Latitude
Longitude
Inclination
Orbital Period

Next 30 passes for location: Hong Kong

Rise time Rise Azimuth (degrees) Set time Set Azimuth (degrees) Duration Max altitude (degrees)

No matching passes for this satellites

PulseSat

PulseSat is the new satellites software and hardware trackering solution by Pulsely.
Satellite Two Line Element Set source: US Air Force Space Command

Download PulseSat for iOS
© 2017 Pulsely Limited